GSAT0207 (GALILEO 15) (41859 NORAD) Tracking and Keplerian Element Data

This shows tracking and keplerian element data for the satellite.

Feedback or suggestion? Click here.




ElementValue
Catalog41859
NameGSAT0207 (GALILEO 15)
Epoch Orbit1025
Epoch Day197.88703468
Epoch Year2018
RAAN181.3503
Inclination54.5846
Eccentricity0.0006448
Argument of Perigee283.646
Mean Anonmoly76.2502
Mean Motion1.70473281
Decay Rate4.9E-07
L11 41859U 16069A 18197.88703468 .00000049 00000-0 00000-0 0 9992
L22 41859 54.5846 181.3503 0006448 283.6460 76.2502 1.70473281 10256

Live tracking and technical data element details for GSAT0207 (GALILEO 15) (NORAD 41859). GSAT0207 (GALILEO 15) can be tracked NOW for your location showing map with azimuth and elevation plus other details from your city location.

Track the satellite on the map from your city or location and see movement details for azimuth, elevation, latitude, longitude, range, height, and movement on the map or in text.







IsCatalogInMostPopularTable: catalog: 41859, numindb: 89
Update: records affected: 1



GetName: 41859 GSAT0207 (GALILEO 15)

Hit Count: updated at: Wed, 18 Jul 2018 20:25:21 GMT